GW4062 Weather Reports


time (UTC)temp
C
wind
direction
speed
KPH
gust
KPH
rain 1hr
cm
rain 24hr
cm
rain mn
cm
humidity
%
barometer
mb
20260503192525 17 29 1.6 4.8 0.00 0.00 0.00 62 1013.3
20260503191545 17 291 1.6 4.8 0.00 0.00 0.00 62 1013.4
20260503190525 17 349 1.6 6.4 0.00 0.00 0.00 61 1013.4
20260503185526 18 342 1.6 6.4 0.00 0.00 0.00 61 1013.4
20260503184526 18 352 1.6 4.8 0.00 0.00 0.00 61 1013.4
20260503183526 17 338 1.6 3.2 0.00 0.00 0.00 63 1013.4
20260503182526 17 326 1.6 4.8 0.00 0.00 0.00 63 1013.4
20260503181526 17 12 1.6 4.8 0.00 0.00 0.00 63 1013.4
20260503180526 17 340 1.6 4.8 0.00 0.00 0.00 64 1013.4
20260503175526 17 71 3.2 4.8 0.00 0.00 0.00 65 1013.4
20260503174526 16 346 3.2 6.4 0.00 0.00 0.00 66 1013.5
20260503173522 16 335 3.2 9.7 0.00 0.00 0.00 67 1013.3
20260503172526 15 342 1.6 4.8 0.00 0.00 0.00 69 1013.3
20260503171527 15 138 1.6 4.8 0.00 0.00 0.00 70 1013.4
20260503170527 15 329 1.6 4.8 0.00 0.00 0.00 73 1013.5
20260503150529 13 226 1.6 3.2 0.00 0.00 0.00 81 1012.9
20260503130550 12 331 1.6 1.6 0.00 0.00 0.00 83 1011.6
20260503110531 12 327 1.6 3.2 0.00 0.00 0.00 81 1011.6
20260503081520 12 320 1.6 1.6 0.00 0.00 0.00 78 1012.3
20260503080521 12 262 1.6 3.2 0.00 0.00 0.00 78 1012.3
20260503072521 13 327 1.6 3.2 0.00 0.00 0.00 78 1012.5
20260503071521 13 279 1.6 4.8 0.00 0.00 0.00 78 1012.4
20260503070521 13 338 1.6 3.2 0.00 0.00 0.00 78 1012.4
20260503054523 13 319 1.6 3.2 0.00 0.00 0.00 77 1012.7
20260503053523 13 335 3.2 3.2 0.00 0.00 0.00 77 1012.7
20260503052523 13 341 3.2 3.2 0.00 0.00 0.00 77 1012.8
20260503051523 13 347 1.6 4.8 0.00 0.00 0.00 78 1012.8
20260503050523 13 333 1.6 3.2 0.00 0.00 0.00 78 1012.8
20260503045523 13 289 1.6 3.2 0.00 0.00 0.00 78 1012.7
20260503044523 13 327 3.2 4.8 0.00 0.00 0.00 78 1012.7
20260503043523 13 316 1.6 3.2 0.00 0.00 0.00 77 1012.5
20260503042544 13 340 3.2 4.8 0.00 0.00 0.00 76 1012.5
20260503041524 13 318 1.6 3.2 0.00 0.00 0.00 76 1012.4
20260503040524 13 300 1.6 3.2 0.00 0.00 0.00 76 1012.4
20260503035524 13 311 3.2 4.8 0.00 0.00 0.00 76 1012.3
20260503034541 13 334 3.2 6.4 0.00 0.00 0.00 76 1012.3
20260503033544 13 338 1.6 4.8 0.00 0.00 0.00 76 1012.1
20260503032524 13 337 3.2 4.8 0.00 0.00 0.00 76 1012.1
20260503031525 13 327 3.2 8.0 0.00 0.00 0.00 76 1012.0
20260503030545 13 323 1.6 4.8 0.00 0.00 0.00 75 1011.8
20260503025542 13 340 3.2 8.0 0.00 0.00 0.00 75 1011.7
20260503024525 13 339 1.6 3.2 0.00 0.00 0.00 74 1011.5
20260503023525 13 345 3.2 8.0 0.00 0.00 0.00 73 1011.4
20260503022522 14 341 3.2 9.7 0.00 0.00 0.00 72 1011.5
20260503021525 15 332 3.2 6.4 0.00 0.00 0.00 71 1011.5
20260503020525 15 330 3.2 6.4 0.00 0.00 0.00 70 1011.4
20260503015525 15 331 3.2 8.0 0.00 0.00 0.00 70 1011.5
20260503014526 15 339 3.2 4.8 0.00 0.00 0.00 70 1011.5
20260503013526 15 338 3.2 4.8 0.00 0.00 0.00 69 1011.5
20260503012526 16 2 3.2 6.4 0.00 0.00 0.00 69 1011.5
20260503011526 16 333 3.2 6.4 0.00 0.00 0.00 67 1011.6
20260503010527 17 314 3.2 4.8 0.00 0.00 0.00 67 1011.5
20260503005526 17 337 3.2 6.4 0.00 0.00 0.00 67 1011.5
20260503004526 17 356 3.2 6.4 0.00 0.00 0.00 67 1011.5
20260503003526 18 351 3.2 6.4 0.00 0.00 0.00 65 1011.6
20260503002526 18 357 1.6 4.8 0.00 0.00 0.00 66 1011.6
20260503001527 18 359 1.6 6.4 0.00 0.00 0.00 64 1011.6
20260503000607 19 16 1.6 4.8 0.00 0.00 0.00 63 1011.7
20260502235527 18 308 3.2 6.4 0.00 0.00 0.00 64 1011.7
20260502234527 18 345 3.2 6.4 0.00 0.00 0.00 64 1011.8
20260502233527 18 358 3.2 6.4 0.00 0.00 0.00 65 1011.9
20260502232539 18 330 3.2 6.4 0.00 0.00 0.00 65 1011.9
20260502231528 18 292 1.6 3.2 0.00 0.00 0.00 65 1012.0
20260502230519 18 328 3.2 8.0 0.00 0.00 0.00 65 1012.2
20260502225528 18 285 3.2 4.8 0.00 0.00 0.00 66 1012.2
20260502224548 18 321 1.6 8.0 0.00 0.00 0.00 67 1012.4
20260502223519 18 339 3.2 8.0 0.00 0.00 0.00 66 1012.5
20260502222519 18 336 4.8 8.0 0.00 0.00 0.00 65 1012.6
20260502221548 18 338 1.6 4.8 0.00 0.00 0.00 65 1012.8
20260502220528 18 347 3.2 6.4 0.00 0.00 0.00 65 1013.0
20260502215528 18 342 1.6 4.8 0.00 0.00 0.00 64 1013.1
20260502214529 18 269 1.6 4.8 0.00 0.00 0.00 64 1013.1
20260502213528 18 330 1.6 4.8 0.00 0.00 0.00 65 1013.2
20260502212528 18 29 1.6 3.2 0.00 0.00 0.00 65 1013.2
20260502211528 18 5 1.6 8.0 0.00 0.00 0.00 65 1013.4
20260502210529 18 324 1.6 4.8 0.00 0.00 0.00 65 1013.5
20260502205529 18 345 3.2 6.4 0.00 0.00 0.00 65 1013.6
20260502204549 18 338 1.6 4.8 0.00 0.00 0.00 67 1013.7
20260502203529 18 16 1.6 3.2 0.00 0.00 0.00 67 1013.8
20260502202550 18 0 1.6 3.2 0.00 0.00 0.00 67 1014.0
20260502201529 18 298 1.6 6.4 0.00 0.00 0.00 67 1014.1
20260502200550 18 358 3.2 4.8 0.00 0.00 0.00 67 1014.2
20260502195610 17 185 1.6 3.2 0.00 0.00 0.00 69 1014.3
20260502194530 17 344 1.6 6.4 0.00 0.00 0.00 68 1014.4
20260502193530 17 2 1.6 8.0 0.00 0.00 0.00 68 1014.4